User: anonymous   Login
Location: Unspecified
(0.0000°N, 0.0000°E)
Time: 07:17:30
(UTC+00:00)
Language:

Envisat - Orbit

View from above orbital plane
View from above orbital plane
View from above satellite
View from above satellite

Ground track
Ground track

The orbit data is extracted from the following two-line orbital elements,

1 27386U 02009A   20224.94930144 +.00000017 +00000-0 +19153-4 0  9992
2 27386 098.1368 229.0809 0001415 088.1147 327.5110 14.37988592966526
Epoch (UTC): 11 August 2020 22:46:59
Eccentricity: 0.0001415
inclination: 98.1368°
perigee height: 764 km
apogee height: 766 km
right ascension of ascending node: 229.0809°
argument of perigee: 88.1147°
revolutions per day: 14.37988592
mean anomaly at epoch: 327.5110°
orbit number at epoch: 96652

The dashed part of the orbit path shows where the satellite is in the earth's shadow,  

DLR